Back to catalog

FLOCK 4H 22

AliveScienceSSO
NORAD 66725·PAYLOAD·🇺🇸 United States

Launched Nov 28, 2025 from Vandenberg Space Force Base

Loading…

Next Passes (next 24 hours)

TLE

FreshSource: CelesTrak SupGP

Epoch: Sep 14, 2026, 12:45 UTC

1 66725C 25276BM  26257.53138889  .00010866  00000+0  48804-3 0  2579
2 66725  97.4099 329.6033 0004286  84.6216 229.9337 15.21216475    19

Track FLOCK 4H 22 in real time with AllMySat

Download on the App Store